Regional Weather Roundup
Issued by NWS

Current Version | Previous Version | Text Only | Print | Product List | Glossary On
Versions: 1 2 3 4 5 6 7 8 9 10 11 12 13 14 15 16 17 18 19 20 21 22 23 24 25 26 27 28 29 30 31 32 33 34 35 36 37 38 39 40 41 42 43 44 45 46 47 48 49 50
000
ASHW40 PHFO 220812
RWRHI

WEATHER ROUNDUP FOR HAWAII
NATIONAL WEATHER SERVICE HONOLULU HI
1000 PM HST SAT JAN 21 2017

THIS IS AN AUTOMATED REPORT THAT HAS NOT BEEN QUALITY CONTROLLED.

NOTE..."FAIR" INDICATES FEW OR NO CLOUDS BELOW 12,000 FEET WITH NO
SIGNIFICANT WEATHER AND/OR OBSTRUCTIONS TO VISIBILITY.

* - THESE SITES REPORT LIMITED FIELDS

HIZ001>004-220900-
KAUAI-NIIHAU-

CITY           SKY/WX    TMP DP  RH WIND       PRES   REMARKS
LIHUE APT      CLOUDY    72  58  61 NE30G43   30.23S
PORT ALLEN*      N/A     72 N/A N/A NE29G46     N/A
POIPU*           N/A     72 N/A N/A NE18G35     N/A
PRINCEVILLE*     N/A     70 N/A N/A E14G24      N/A
KOKOLE POINT*  NOT AVBL
MOLOAA DAIRY*    N/A     70  55  60 E7G23       N/A
WAIMEA HTS*    NOT AVBL
PUU OPAE*      NOT AVBL
PUU LUA*       NOT AVBL
MAKAHA RIDGE*  NOT AVBL
$$

HIZ005>011-220900-
OAHU-

CITY           SKY/WX    TMP DP  RH WIND       PRES   REMARKS
HONOLULU       PTCLDY    72  52  49 E22G39    30.15F
KALAELOA         N/A     73  55  53 NE17G28   30.15S
KANEOHE MCB    CLOUDY    73  61  64 NE28G37   30.18F
WHEELER FIELD  FAIR      67  54  63 VRB6      30.17
BELLOWS*       NOT AVBL
KAHUKU*        NOT AVBL
WHEELER*       NOT AVBL
WAIANAE HARBOR NOT AVBL
DILLINGHAM*      N/A     73  55  53 MISG        N/A
KAHUKU TRN*      N/A    N/A N/A N/A W21G38      N/A
KAWAILOA*        N/A     64  52  63 E25G47      N/A
KII*             N/A     72  59  64 NE26G39     N/A
MAKUA RANGE*     N/A     70  54  56 W26G52      N/A
OAHU FOREST NW NOT AVBL
SCHOFIELD BRK*   N/A     64  52  63 MISG        N/A
SCHOFIELD S*   NOT AVBL
WAIANAE VLY*   NOT AVBL
KUAOKALA*      NOT AVBL
HONOULIUULI*   NOT AVBL
MOKUOLOE IS*   NOT AVBL
PALEHUA*       NOT AVBL
WAIAWA PHB*    NOT AVBL
$$

HIZ012>013-220900-
MOLOKAI-

CITY           SKY/WX    TMP DP  RH WIND       PRES   REMARKS
MOLOKAI AIRPT  CLOUDY    69  57  65 NE22G41   30.15R
KALAUPAPA      NOT AVBL
MAKAPULAPAI*   NOT AVBL
MOLOKAI 1*     NOT AVBL
PUU ALII*      NOT AVBL
$$

HIZ016-220900-
KAHOOLAWE-

CITY           SKY/WX    TMP DP  RH WIND       PRES   REMARKS
KAHOOLAWE*     NOT AVBL
HAKIOAWA*      NOT AVBL
HONOKANAIA*      N/A     72  60  67 N15G37    30.04R
KANELOA*         N/A     68  61  77 NE13G32   30.16R
KEALIALALO*    NOT AVBL
LUA MAKIKA*    NOT AVBL
$$

HIZ014>015-220900-
LANAI-

CITY           SKY/WX    TMP DP  RH WIND       PRES   REMARKS
LANAI CITY     FAIR      65  56  72 NE44G61   30.09S
LANAI 1*       NOT AVBL
$$

HIZ017>028-220900-
MAUI-

CITY           SKY/WX    TMP DP  RH WIND       PRES   REMARKS
KAHULUI        CLOUDY    71  59  65 NE29G39   30.17R
KAPALUA-W MAUI NOT AVBL
HANA AIRPORT   CLOUDY    72  61  68 NE15      30.25R HAZE
HANA*            N/A     72 N/A N/A NE17G28     N/A
HALEAKALA SUMM   N/A     36  36 100 NE25G43     N/A  WCI  23
MAALAEA BAY*   NOT AVBL
HALEAKALA*     NOT AVBL
KAUPO GAP*     NOT AVBL
KULA 1*          N/A     48  37  66 E5          N/A
$$

HIZ023>026-220900-
BIG ISLAND OF HAWAII COAST AND LOWER SLOPES-

CITY           SKY/WX    TMP DP  RH WIND       PRES   REMARKS
KAILUA KONA    PTCLDY    75  66  73 SE6       30.04S
HILO           CLOUDY    72  66  81 NE15G23   30.18S
HONOKAA*         N/A     64 N/A N/A VRB1        N/A
KAWAIHAE MWT*  NOT AVBL
KAWAIHAE*        N/A     81 N/A N/A NE31G48   29.94F
SOUTH POINT*     N/A     70 N/A N/A VRB25G39    N/A
UPOLU AIRPORT* NOT AVBL
KAMUELA*       CLOUDY    61  59  94 NE28G46   30.15S
HAKALAU*         N/A     48  48 100 NW2G17      N/A
KALOKO-HONOKO* NOT AVBL
PALI 2*          N/A     63  57  82 S28G45      N/A
KEALAKOMO*       N/A     72  63  73 N30G41      N/A
KAUPULEHU*     NOT AVBL
KAPAPALA*      NOT AVBL
LOWER KAHUKU*  NOT AVBL
PUHE CS*       NOT AVBL
PUHO CS*       NOT AVBL
PTA KEAMUKU*     N/A     59  55  88 CALM        N/A
WAIKOLOA*      NOT AVBL
$$

HIZ027>028-220900-
BIG ISLAND OF HAWAII INTERIOR AND SUMMMITS-

CITY           SKY/WX    TMP DP  RH WIND       PRES   REMARKS
BRADSHAW FIELD PTCLDY    46  42  84 SE5       30.34R
MK VISITOR CEN   N/A     48  25  40 NE15        N/A
MAUNA KEA*       N/A     30   7  37 E1G15       N/A
MAUNA LOA*       N/A    N/A N/A N/A MISG        N/A
MAUNA LOA 1*   NOT AVBL
PTA KIPUKA*      N/A    N/A N/A N/A E26G41      N/A
PTA RANGE 17*    N/A     54  45  71 SE24G37     N/A
PTA WEST*        N/A     61  46  59 E26G40      N/A
NENE CABIN*    NOT AVBL
AHUMOA*        NOT AVBL
PTA PORTABLE*  NOT AVBL
PUU MALI*        N/A     48 N/A N/A E20G29      N/A
$$

HIC003-220900-
NORTHWEST ISLANDS-

CITY           SKY/WX    TMP DP  RH WIND       PRES   REMARKS
MIDWAY ISLAND  CLOUDY    72  63  73 S24G30    30.13F
MIDWAY NOS*    NOT AVBL
FRENCH FRIGATE NOT AVBL
$$

PHZ110>124-180-220900-
BUOY REPORTS

STATION/POSITION TIME  TEMP    WIND        PRES    WAVE   SWELL
                       AIR SEA DIR/SP/G            HT/PER HT/DIR
                 (UTC) (F)     (DEG/KT/KT) (MB)    (FT/S) (FT/D)
BUOY 51001       0750   70 75   70/ 23/ 29 1025.5S  14/ 9   2/270
BUOY 51101       0750   70 75   60/ 25/ 29 1025.5F  14/ 8
BUOY 51100       NOT AVBL
BUOY 51002       0750   76 78   70/ 23/ 29 1017.0R  12/ 8  10/ 80
BUOY 51003       0750   75 78   60/ 25/ 35 1018.0R  16/ 9
BUOY 51004       0650      77   50/ 23/ 29 1017.1   10/14   7/310
BARBERS PT BUOY  NOT AVBL
WAIMEA BAY BUOY  0732      75                N/A    12/11   7/360
KAILUA BAY BUOY  0734      76                N/A    16/ 9   8/ 10
LANAI BUOY       0745      77                N/A     5/13   3/290
BARBERS PT 2     0739      77                N/A     7/12   5/310
PAUWELA MAUI     0739      75                N/A    16/11  10/350
HILO             0742      76                N/A    12/ 9   5/340
KANEOHE BAY BUOY 0736      75                N/A    15/ 9   7/360
HANALEI KAUAI    0752      76                N/A    16/10   8
KAHULUI HARBOR   0748   72 75   50/ 19/ 26 1022.3R
HONOLULU HARBOR  0748   72 76  120/  8/ 24 1021.3R
KILO NALU        NOT AVBL
HILO HARBOR      0748   72 74   30/ 20/ 27 1021.7R
MOKUOLOE         0736   72 75   70/ 19/ 25 1023.2R
NAWILIWILI       0748   71      50/ 19/ 28 1022.7F
WHOTS BUOY       NOT AVBL
BUOY 51028       NOT AVBL
$$

......................KEY........................................
  SKY/WX - SKY CONDITIONS/PRESENT WEATHER
  TMP    - TEMPERATURE IN FAHRENHEIT
  DWPT   - DEWPOINT IN FAHRENHEIT
  RH     - RELATIVE HUMIDITY IN PERCENT
  WIND   - DIRECTION AND SPEED /MPH FOR ISLANDS...KTS FOR BUOYS/
  PRES   - MEAN SEA LEVEL PRESSURE IN INCHES OF HG
  VSB    - VISIBILITY IN MILES
  HX     - HEAT INDEX
  WCI    - WIND CHILL INDEX
  VRB    - VARIABLE WIND DIRECTION
  N/A    - NOT AVAILABLE




USA.gov is the U.S. government's official web portal to all federal, state and local government web resources and services.